Hourly Weather Ruzaevka

Today, 22 April, Thursday

Time Temperature Precipitation Wind Pressure Humidity
00:00 +5°C° 0 mm 2 mps 755 mmHg 68%
01:00 +4°C° 0 mm 2 mps 755 mmHg 70%
02:00 +4°C° 0 mm 2 mps 755 mmHg 70%
03:00 +3°C° 0 mm 2 mps 755 mmHg 71%
04:00 +3°C° 0 mm 2 mps 756 mmHg 72%
05:00 +4°C° 0 mm 2 mps 756 mmHg 68%
06:00 +5°C° 0 mm 2 mps 757 mmHg 64%
07:00 +6°C° 0 mm 2 mps 757 mmHg 60%
08:00 +8°C° 0 mm 2 mps 757 mmHg 55%
09:00 +9°C° 0 mm 3 mps 757 mmHg 50%
10:00 +10°C° 0 mm 3 mps 758 mmHg 47%
11:00 +11°C° 0 mm 3 mps 758 mmHg 45%
12:00 +11°C° 0 mm 3 mps 758 mmHg 43%
13:00 +13°C° 0 mm 2 mps 758 mmHg 42%
14:00 +12°C° 0 mm 3 mps 758 mmHg 41%
15:00 +12°C° 0 mm 3 mps 757 mmHg 40%
16:00 +12°C° 0 mm 4 mps 757 mmHg 40%
17:00 +11°C° 0 mm 4 mps 757 mmHg 43%
18:00 +10°C° 0 mm 4 mps 758 mmHg 46%
19:00 +8°C° 0 mm 5 mps 758 mmHg 49%
20:00 +7°C° 0 mm 5 mps 758 mmHg 48%
21:00 +6°C° 0 mm 5 mps 758 mmHg 47%
22:00 +4°C° 0 mm 6 mps 758 mmHg 47%
23:00 +4°C° 0 mm 6 mps 758 mmHg 48%

Tomorrow, 23 April, Friday

Time Temperature Precipitation Wind Pressure Humidity
00:00 +3°C° 0 mm 5 mps 758 mmHg 49%
01:00 +2°C° 0 mm 5 mps 758 mmHg 50%
02:00 +2°C° 0 mm 5 mps 758 mmHg 53%
03:00 +1°C° 0 mm 5 mps 758 mmHg 55%
04:00 +1°C° 0 mm 5 mps 758 mmHg 57%
05:00 +1°C° 0 mm 5 mps 758 mmHg 55%
06:00 +2°C° 0 mm 6 mps 758 mmHg 53%
07:00 +2°C° 0 mm 6 mps 759 mmHg 50%
08:00 +4°C° 0 mm 6 mps 758 mmHg 46%
09:00 +5°C° 0 mm 6 mps 758 mmHg 41%
10:00 +7°C° 0 mm 6 mps 758 mmHg 36%
11:00 +8°C° 0 mm 6 mps 758 mmHg 33%
12:00 +9°C° 0 mm 6 mps 757 mmHg 31%
13:00 +9°C° 0 mm 6 mps 757 mmHg 28%
14:00 +9°C° 0 mm 6 mps 757 mmHg 28%
15:00 +9°C° 0 mm 6 mps 756 mmHg 28%
16:00 +9°C° 0 mm 5 mps 756 mmHg 28%
17:00 +8°C° 0 mm 5 mps 756 mmHg 32%
18:00 +7°C° 0 mm 4 mps 756 mmHg 37%
19:00 +6°C° 0 mm 4 mps 755 mmHg 41%
20:00 +6°C° 0 mm 4 mps 755 mmHg 42%
21:00 +6°C° 0 mm 5 mps 755 mmHg 44%
22:00 +5°C° 0 mm 5 mps 754 mmHg 45%
23:00 +5°C° 0 mm 5 mps 754 mmHg 45%

Day after tomorrow, 24 April, Saturday

Time Temperature Precipitation Wind Pressure Humidity
00:00 +5°C° 0 mm 5 mps 753 mmHg 46%
01:00 +4°C° 0 mm 6 mps 753 mmHg 46%
02:00 +3°C° 0 mm 5 mps 752 mmHg 48%
03:00 +3°C° 0 mm 5 mps 752 mmHg 50%
04:00 +3°C° 0 mm 5 mps 752 mmHg 52%
05:00 +3°C° 0 mm 5 mps 752 mmHg 52%
06:00 +3°C° 0 mm 5 mps 752 mmHg 53%
07:00 +3°C° 0 mm 5 mps 751 mmHg 54%
08:00 +4°C° 0 mm 6 mps 751 mmHg 48%
09:00 +7°C° 0 mm 6 mps 751 mmHg 42%
10:00 +8°C° 0 mm 7 mps 750 mmHg 36%
11:00 +8°C° 0 mm 7 mps 750 mmHg 33%
12:00 +9°C° 0 mm 8 mps 749 mmHg 30%
13:00 +10°C° 0 mm 8 mps 749 mmHg 27%
14:00 +9°C° 0 mm 8 mps 748 mmHg 29%
15:00 +9°C° 0 mm 8 mps 748 mmHg 32%
16:00 +9°C° 0 mm 7 mps 747 mmHg 34%
17:00 +8°C° 0 mm 7 mps 747 mmHg 40%
18:00 +7°C° 0 mm 6 mps 747 mmHg 45%
19:00 +5°C° 0 mm 6 mps 747 mmHg 50%
20:00 +5°C° 0 mm 7 mps 746 mmHg 49%
21:00 +5°C° 0 mm 7 mps 745 mmHg 47%
22:00 +5°C° 0 mm 7 mps 745 mmHg 46%
23:00 +5°C° 0 mm 7 mps 744 mmHg 46%

25 April, Sunday

Time Temperature Precipitation Wind Pressure Humidity
00:00 +5°C° 0 mm 7 mps 744 mmHg 46%
01:00 +5°C° 0 mm 7 mps 743 mmHg 46%
02:00 +4°C° 0 mm 7 mps 743 mmHg 48%
03:00 +4°C° 0 mm 7 mps 743 mmHg 49%
04:00 +3°C° 0 mm 7 mps 742 mmHg 51%
05:00 +4°C° 0 mm 7 mps 742 mmHg 49%
06:00 +5°C° 0 mm 7 mps 742 mmHg 46%
07:00 +6°C° 0 mm 7 mps 742 mmHg 44%
08:00 +8°C° 0 mm 7 mps 742 mmHg 45%
09:00 +10°C° 0 mm 7 mps 741 mmHg 46%
10:00 +11°C° 0 mm 6 mps 741 mmHg 47%
11:00 +11°C° 0 mm 6 mps 741 mmHg 51%
12:00 +11°C° 0 mm 6 mps 742 mmHg 55%
13:00 +10°C° 0 mm 5 mps 742 mmHg 59%
14:00 +12°C° 0 mm 5 mps 742 mmHg 59%
15:00 +11°C° 0 mm 6 mps 742 mmHg 59%
16:00 +11°C° 0 mm 6 mps 743 mmHg 59%
17:00 +11°C° 0 mm 4 mps 743 mmHg 62%
18:00 +10°C° 0 mm 3 mps 743 mmHg 65%
19:00 +10°C° 0 mm 2 mps 743 mmHg 68%
20:00 +9°C° 0 mm 2 mps 743 mmHg 66%
21:00 +9°C° 0 mm 3 mps 744 mmHg 65%
22:00 +9°C° 0 mm 3 mps 744 mmHg 63%
23:00 +9°C° 0 mm 3 mps 744 mmHg 66%

26 April, Monday

Time Temperature Precipitation Wind Pressure Humidity
00:00 +8°C° 0 mm 4 mps 744 mmHg 69%
01:00 +8°C° 0 mm 4 mps 744 mmHg 71%
02:00 +8°C° 0 mm 4 mps 744 mmHg 76%
03:00 +8°C° 0 mm 3 mps 744 mmHg 80%
04:00 +8°C° 0 mm 3 mps 745 mmHg 84%
05:00 +9°C° 0 mm 3 mps 745 mmHg 77%
06:00 +8°C° 0 mm 4 mps 745 mmHg 70%
07:00 +10°C° 0 mm 4 mps 746 mmHg 63%
08:00 +10°C° 0 mm 5 mps 746 mmHg 54%
09:00 +13°C° 0 mm 6 mps 746 mmHg 46%
10:00 +14°C° 0 mm 7 mps 746 mmHg 38%
11:00 +15°C° 0 mm 7 mps 746 mmHg 37%
12:00 +15°C° 0 mm 7 mps 746 mmHg 37%
13:00 +16°C° 0 mm 7 mps 746 mmHg 36%
14:00 +16°C° 0 mm 6 mps 746 mmHg 39%
15:00 +16°C° 0 mm 6 mps 746 mmHg 42%
16:00 +16°C° 0 mm 6 mps 746 mmHg 44%
17:00 +14°C° 0 mm 5 mps 746 mmHg 53%
18:00 +13°C° 0 mm 5 mps 746 mmHg 61%
19:00 +12°C° 0 mm 4 mps 746 mmHg 70%
20:00 +11°C° 0.2 mm 3 mps 746 mmHg 74%
21:00 +12°C° 0.2 mm 2 mps 745 mmHg 78%
22:00 +11°C° 0.2 mm 1 mps 745 mmHg 83%
23:00 +10°C° 0.4 mm 2 mps 744 mmHg 84%

27 April, Tuesday

Time Temperature Precipitation Wind Pressure Humidity
00:00 +10°C° 0.4 mm 3 mps 744 mmHg 86%
01:00 +10°C° 0.4 mm 4 mps 743 mmHg 87%
02:00 +10°C° 0.2 mm 6 mps 743 mmHg 83%
03:00 +10°C° 0.2 mm 7 mps 742 mmHg 79%
04:00 +11°C° 0.2 mm 8 mps 741 mmHg 75%
05:00 +11°C° 0 mm 7 mps 741 mmHg 71%
06:00 +13°C° 0 mm 6 mps 741 mmHg 68%
07:00 +13°C° 0 mm 4 mps 741 mmHg 64%
08:00 +14°C° 0.1 mm 5 mps 741 mmHg 57%
09:00 +15°C° 0.1 mm 6 mps 740 mmHg 51%
10:00 +16°C° 0.1 mm 6 mps 739 mmHg 44%
11:00 +18°C° 0 mm 7 mps 739 mmHg 41%
12:00 +20°C° 0 mm 7 mps 738 mmHg 38%
13:00 +21°C° 0 mm 7 mps 738 mmHg 34%
14:00 +21°C° 0 mm 6 mps 737 mmHg 34%
15:00 +22°C° 0 mm 5 mps 737 mmHg 34%
16:00 +22°C° 0 mm 3 mps 736 mmHg 34%
17:00 +20°C° 0 mm 3 mps 736 mmHg 43%
18:00 +18°C° 0 mm 3 mps 736 mmHg 53%
19:00 +14°C° 0 mm 3 mps 735 mmHg 63%
20:00 +13°C° 0 mm 3 mps 735 mmHg 69%
21:00 +12°C° 0 mm 3 mps 735 mmHg 75%
22:00 +11°C° 0 mm 3 mps 735 mmHg 81%
23:00 +12°C° 0 mm 2 mps 735 mmHg 82%
Show more